| time (UTC) | temp C | wind direction | speed KPH | gust KPH | rain 1hr cm | rain 24hr cm | rain mn cm | humidity % | barometer mb |
| 20260507161535 | 17 | 252 | 1.6 | 4.8 | 0.00 | 0.00 | 0.00 | 73 | 1014.5 |
| 20260507160028 | 18 | 321 | 1.6 | 8.0 | 0.00 | 0.00 | 0.00 | 72 | 1014.3 |
| 20260507154532 | 18 | 0 | 1.6 | 6.4 | 0.00 | 0.00 | 0.00 | 71 | 1014.4 |
| 20260507153038 | 19 | 13 | 1.6 | 8.0 | 0.00 | 0.00 | 0.00 | 71 | 1014.5 |
| 20260507151526 | 18 | 339 | 6.4 | 14.5 | 0.00 | 0.00 | 0.00 | 72 | 1014.5 |
| 20260507150027 | 20 | 295 | 1.6 | 4.8 | 0.00 | 0.00 | 0.00 | 70 | 1014.2 |
| 20260507144526 | 20 | 264 | 1.6 | 8.0 | 0.00 | 0.00 | 0.00 | 69 | 1014.1 |
| 20260507143027 | 21 | 0 | 1.6 | 4.8 | 0.00 | 0.00 | 0.00 | 68 | 1014.1 |
| 20260507141528 | 21 | 334 | 1.6 | 6.4 | 0.00 | 0.00 | 0.00 | 65 | 1014.1 |
| 20260507140030 | 22 | 285 | 3.2 | 6.4 | 0.00 | 0.00 | 0.00 | 61 | 1014.2 |
| 20260507134531 | 22 | 274 | 1.6 | 8.0 | 0.00 | 0.00 | 0.00 | 55 | 1014.2 |
| 20260507133028 | 22 | 283 | 3.2 | 9.7 | 0.00 | 0.00 | 0.00 | 56 | 1014.4 |
| 20260507131527 | 22 | 287 | 1.6 | 8.0 | 0.00 | 0.00 | 0.00 | 53 | 1014.4 |
| 20260507130036 | 21 | 310 | 0.0 | 4.8 | 0.00 | 0.00 | 0.00 | 54 | 1014.6 |
| 20260507124529 | 22 | 219 | 3.2 | 6.4 | 0.00 | 0.00 | 0.00 | 52 | 1014.7 |
| 20260507123026 | 22 | 288 | 4.8 | 12.9 | 0.00 | 0.00 | 0.00 | 53 | 1014.7 |
| 20260507121526 | 22 | 179 | 3.2 | 14.5 | 0.00 | 0.00 | 0.00 | 51 | 1014.9 |
| 20260507120027 | 22 | 213 | 3.2 | 8.0 | 0.00 | 0.00 | 0.00 | 51 | 1014.9 |
| 20260507114525 | 21 | 286 | 4.8 | 16.1 | 0.00 | 0.00 | 0.00 | 48 | 1015.0 |
| 20260507113026 | 21 | 214 | 3.2 | 9.7 | 0.00 | 0.00 | 0.00 | 52 | 1015.3 |
| 20260507111528 | 21 | 283 | 3.2 | 11.3 | 0.00 | 0.00 | 0.00 | 54 | 1015.3 |
| 20260507103030 | 20 | 51 | 1.6 | 6.4 | 0.00 | 0.00 | 0.00 | 64 | 1015.2 |
| 20260507083028 | 17 | 281 | 0.0 | 3.2 | 0.00 | 0.00 | 0.00 | 74 | 1015.7 |
| 20260507081527 | 16 | 0 | 0.0 | 3.2 | 0.00 | 0.00 | 0.00 | 79 | 1015.8 |
| 20260507080036 | 15 | 274 | 0.0 | 3.2 | 0.00 | 0.00 | 0.00 | 79 | 1015.5 |
| 20260507074528 | 15 | 0 | 0.0 | 1.6 | 0.00 | 0.00 | 0.00 | 82 | 1015.5 |
| 20260507073029 | 14 | 278 | 1.6 | 3.2 | 0.00 | 0.00 | 0.00 | 82 | 1015.4 |
| 20260507071556 | 14 | 0 | 0.0 | 1.6 | 0.00 | 0.00 | 0.00 | 83 | 1015.5 |
| 20260507070030 | 13 | 0 | 0.0 | 1.6 | 0.00 | 0.00 | 0.00 | 85 | 1015.6 |
| 20260507064527 | 13 | 276 | 0.0 | 1.6 | 0.00 | 0.00 | 0.00 | 84 | 1015.6 |
| 20260507063025 | 13 | 4 | 0.0 | 1.6 | 0.00 | 0.00 | 0.00 | 85 | 1015.7 |
| 20260507061529 | 13 | 0 | 0.0 | 0.0 | 0.00 | 0.00 | 0.00 | 84 | 1015.6 |
| 20260507060030 | 13 | 19 | 0.0 | 1.6 | 0.00 | 0.00 | 0.00 | 85 | 1015.5 |
| 20260507054526 | 13 | 0 | 0.0 | 1.6 | 0.00 | 0.00 | 0.00 | 83 | 1015.4 |
| 20260507053032 | 13 | 34 | 0.0 | 3.2 | 0.00 | 0.00 | 0.00 | 85 | 1015.3 |
| 20260507051538 | 13 | 22 | 0.0 | 3.2 | 0.00 | 0.00 | 0.00 | 85 | 1015.2 |
| 20260507050035 | 13 | 96 | 1.6 | 3.2 | 0.00 | 0.00 | 0.00 | 80 | 1014.9 |
| 20260507044529 | 14 | 210 | 0.0 | 17.7 | 0.00 | 0.00 | 0.00 | 76 | 1014.6 |
| 20260507043026 | 14 | 226 | 1.6 | 11.3 | 0.00 | 0.00 | 0.00 | 76 | 1014.4 |
| 20260507041529 | 14 | 0 | 0.0 | 12.9 | 0.00 | 0.00 | 0.00 | 78 | 1014.2 |
| 20260507040028 | 14 | 0 | 1.6 | 16.1 | 0.00 | 0.00 | 0.00 | 79 | 1013.9 |
| 20260507034535 | 13 | 197 | 4.8 | 17.7 | 0.00 | 0.00 | 0.00 | 80 | 1014.1 |
| 20260507033038 | 13 | 0 | 1.6 | 16.1 | 0.00 | 0.00 | 0.00 | 83 | 1014.1 |
| 20260507031527 | 12 | 121 | 1.6 | 11.3 | 0.00 | 0.00 | 0.00 | 85 | 1014.4 |
| 20260507030029 | 13 | 0 | 0.0 | 9.7 | 0.00 | 0.00 | 0.00 | 84 | 1014.4 |
| 20260507024533 | 13 | 0 | 1.6 | 17.7 | 0.00 | 0.00 | 0.00 | 84 | 1014.4 |
| 20260507023034 | 13 | 0 | 1.6 | 19.3 | 0.00 | 0.00 | 0.00 | 84 | 1014.5 |
| 20260507021528 | 13 | 199 | 3.2 | 14.5 | 0.00 | 0.00 | 0.00 | 84 | 1014.6 |
| 20260507020026 | 12 | 153 | 1.6 | 17.7 | 0.00 | 0.00 | 0.00 | 83 | 1014.5 |
| 20260507014529 | 12 | 0 | 0.0 | 14.5 | 0.00 | 0.00 | 0.00 | 83 | 1014.5 |
| 20260507013028 | 12 | 0 | 1.6 | 20.9 | 0.00 | 0.00 | 0.00 | 82 | 1014.3 |
| 20260507011533 | 13 | 200 | 1.6 | 16.1 | 0.00 | 0.00 | 0.00 | 80 | 1014.0 |
| 20260507010030 | 12 | 224 | 1.6 | 22.5 | 0.00 | 0.00 | 0.00 | 80 | 1013.9 |
| 20260507004536 | 12 | 219 | 1.6 | 19.3 | 0.00 | 0.00 | 0.00 | 79 | 1014.2 |
| 20260507003028 | 12 | 177 | 1.6 | 14.5 | 0.00 | 0.00 | 0.00 | 77 | 1014.3 |
| 20260507001530 | 12 | 126 | 1.6 | 12.9 | 0.00 | 0.00 | 0.00 | 76 | 1014.4 |
| 20260507000030 | 12 | 184 | 0.0 | 22.5 | 0.00 | 0.00 | 0.00 | 75 | 1014.5 |
| 20260506234528 | 12 | 0 | 0.0 | 11.3 | 0.00 | 0.00 | 0.00 | 75 | 1014.7 |
| 20260506233026 | 12 | 0 | 0.0 | 3.2 | 0.00 | 0.00 | 0.00 | 79 | 1015.2 |
| 20260506231528 | 12 | 0 | 0.0 | 3.2 | 0.00 | 0.00 | 0.00 | 77 | 1015.2 |
| 20260506230031 | 12 | 0 | 0.0 | 1.6 | 0.00 | 0.00 | 0.00 | 77 | 1015.3 |
| 20260506224530 | 13 | 0 | 0.0 | 8.0 | 0.00 | 0.00 | 0.00 | 75 | 1015.5 |
| 20260506223029 | 13 | 0 | 0.0 | 4.8 | 0.00 | 0.00 | 0.00 | 74 | 1015.4 |
| 20260506221529 | 13 | 0 | 0.0 | 6.4 | 0.00 | 0.00 | 0.00 | 77 | 1015.5 |
| 20260506220034 | 13 | 0 | 0.0 | 0.0 | 0.00 | 0.00 | 0.00 | 77 | 1015.5 |
| 20260506214528 | 13 | 130 | 0.0 | 8.0 | 0.00 | 0.00 | 0.00 | 77 | 1015.6 |
| 20260506213031 | 13 | 248 | 0.0 | 6.4 | 0.00 | 0.00 | 0.00 | 77 | 1015.7 |
| 20260506211532 | 13 | 0 | 0.0 | 4.8 | 0.00 | 0.00 | 0.00 | 79 | 1015.8 |
| 20260506210027 | 13 | 0 | 0.0 | 12.9 | 0.00 | 0.00 | 0.00 | 78 | 1016.0 |
| 20260506204555 | 14 | 0 | 0.0 | 3.2 | 0.00 | 0.00 | 0.00 | 76 | 1016.3 |
| 20260506203029 | 14 | 0 | 0.0 | 11.3 | 0.00 | 0.00 | 0.00 | 73 | 1016.2 |
| 20260506201530 | 14 | 211 | 1.6 | 17.7 | 0.00 | 0.00 | 0.00 | 71 | 1016.2 |
| 20260506200027 | 14 | 0 | 0.0 | 9.7 | 0.00 | 0.00 | 0.00 | 72 | 1015.9 |
| 20260506194527 | 15 | 96 | 0.0 | 6.4 | 0.00 | 0.00 | 0.00 | 73 | 1015.6 |
| 20260506193026 | 15 | 0 | 0.0 | 6.4 | 0.00 | 0.00 | 0.00 | 71 | 1015.5 |
| 20260506191528 | 15 | 0 | 0.0 | 3.2 | 0.00 | 0.00 | 0.00 | 71 | 1015.4 |
| 20260506190028 | 15 | 0 | 0.0 | 6.4 | 0.00 | 0.00 | 0.00 | 69 | 1015.3 |
| 20260506184529 | 15 | 0 | 0.0 | 6.4 | 0.00 | 0.00 | 0.00 | 65 | 1015.1 |
| 20260506183028 | 15 | 0 | 0.0 | 17.7 | 0.00 | 0.00 | 0.00 | 62 | 1015.1 |
| 20260506181526 | 15 | 252 | 1.6 | 9.7 | 0.00 | 0.00 | 0.00 | 61 | 1014.9 |
| 20260506180030 | 15 | 274 | 0.0 | 4.8 | 0.00 | 0.00 | 0.00 | 59 | 1014.9 |
| 20260506174527 | 15 | 0 | 0.0 | 6.4 | 0.00 | 0.00 | 0.00 | 60 | 1014.8 |
| 20260506173028 | 16 | 229 | 1.6 | 8.0 | 0.00 | 0.00 | 0.00 | 59 | 1014.7 |
| 20260506171526 | 16 | 0 | 0.0 | 3.2 | 0.00 | 0.00 | 0.00 | 61 | 1014.7 |
| 20260506170028 | 16 | 217 | 0.0 | 4.8 | 0.00 | 0.00 | 0.00 | 62 | 1014.5 |
| 20260506164528 | 16 | 276 | 0.0 | 8.0 | 0.00 | 0.00 | 0.00 | 64 | 1014.5 |
| 20260506163032 | 17 | 296 | 0.0 | 3.2 | 0.00 | 0.00 | 0.00 | 65 | 1014.7 |